Location: Alexandria
(38.8050°N, 77.0470°W)
Time: 20:21:51

N. Korean satellite - Pass Details

Date: 16 March 2018
Orbit: 460 x 512 km, 97.2° (Epoch: 23 March)

Event Time Altitude Azimuth Distance (km) Brightness Sun altitude
Rises 19:59:48 0° 208° (SSW) 2,540 10.5 -9.3°
Reaches altitude 10° 20:02:37 10° 233° (SW) 1,678 10.0 -9.8°
Maximum altitude 20:04:40 15° 268° (W) 1,431 10.3 -10.2°
Drops below altitude 10° 20:06:45 10° 302° (WNW) 1,703 10.5 -10.6°
Sets 20:09:39 0° 328° (NNW) 2,604 10.9 -11.2°
